Wind_Speed
6 6 7 7 6 7 7 6 5 4 4 4 3 2 2 2 2 2 2 1 1 1 1 1 1 2 2 2 2 2 3 3 3 3 3 3 3 3 3 3 3 3 4 4 4 3 3 4 3
6 6 7 6 6 7 7 6 5 5 5 5 4 3 3 3 3 3 2 1 2 1 1 2 2 1 2 2 2 2 2 3 3 3 4 3 3 3 3 4 3 3 4 4 4 4 3 3 3
7 7 7 7 7 7 6 6 5 5 6 5 4 4 4 4 4 3 2 2 2 2 2 2 2 2 2 3 3 3 3 3 3 3 4 3 3 2 3 3 3 3 4 4 4 3 3 3 3
7 7 8 8 8 7 7 6 5 4 5 5 4 4 3 4 4 3 3 2 2 2 2 3 3 3 3 3 3 3 4 4 5 5 4 4 4 3 3 3 3 4 4 4 3 3 3 3 2
7 7 8 8 7 7 6 6 5 4 5 5 5 4 3 4 4 3 3 3 3 3 3 3 3 3 4 4 4 4 4 5 6 5 5 4 4 3 3 3 3 3 3 3 3 3 2 2 3
7 7 7 7 6 6 5 5 5 5 5 5 5 4 4 4 4 4 4 3 3 3 4 4 3 3 3 3 3 4 5 6 6 6 5 5 4 4 4 4 4 4 3 3 3 3 3 2 3
8 8 7 8 7 6 5 5 5 5 5 5 4 4 4 4 5 4 4 4 4 4 4 4 4 4 3 3 4 5 6 6 5 6 5 5 4 4 4 4 4 4 4 4 3 3 3 2 2
8 8 8 8 8 6 5 5 5 5 4 4 4 4 4 4 4 4 4 4 4 4 4 4 4 4 4 4 4 4 5 5 5 5 5 5 5 5 5 5 5 5 4 4 4 3 3 2 2
9 9 8 8 8 7 6 6 5 5 5 5 5 5 5 4 4 4 4 4 4 3 4 4 4 4 4 3 4 5 5 6 6 6 5 5 5 5 5 5 5 4 4 5 5 4 3 3 3
10 9 8 8 8 7 6 6 7 6 6 6 6 5 5 5 4 4 3 3 3 4 4 4 4 4 4 4 5 5 5 6 6 6 5 5 5 5 5 4 4 4 4 4 4 4 3 3 3
10 10 9 9 9 8 8 7 7 7 7 6 6 5 5 5 5 5 5 4 4 4 4 4 4 4 5 5 5 6 6 6 6 6 6 5 5 5 5 5 5 4 4 4 3 3 3 4 4
8 9 8 8 9 8 8 8 8 8 8 7 6 6 6 6 6 5 5 5 5 5 4 5 5 5 5 6 6 6 6 6 6 6 5 5 5 5 5 5 5 4 4 4 4 4 4 5 5
9 9 9 9 8 8 8 8 7 7 7 7 7 7 7 6 6 6 6 6 6 6 6 6 6 5 5 6 6 6 6 6 6 5 6 6 5 5 4 4 5 5 5 5 5 5 5 5 5
9 9 9 9 8 8 8 7 7 7 7 7 7 7 7 7 7 7 7 7 7 7 6 6 7 6 6 6 6 5 6 6 6 5 6 5 5 5 5 4 5 6 5 5 5 5 5 5 5
8 8 8 8 8 8 8 7 7 7 8 8 8 8 8 8 8 8 8 8 8 7 7 7 7 7 7 7 5 5 5 5 5 5 5 5 5 5 4 4 4 5 5 5 4 4 5 5 5
7 7 8 8 8 8 8 8 8 8 7 7 8 8 8 7 8 8 9 8 8 8 7 7 7 7 7 6 5 5 5 5 5 5 5 5 5 4 4 4 4 5 5 5 5 4 4 4 5
9 8 8 8 8 7 7 7 7 7 8 8 8 8 8 8 8 8 9 9 8 8 8 8 8 8 7 6 6 6 6 6 6 5 5 5 5 4 4 4 5 5 5 5 4 4 4 4 5
8 8 8 8 8 8 7 7 8 8 7 7 8 8 8 8 8 8 8 8 8 8 8 8 8 8 8 7 7 7 6 6 6 5 4 4 4 4 4 5 5 5 5 5 4 4 4 4 4
8 8 8 8 8 8 9 8 8 8 8 8 8 9 9 9 8 8 8 8 8 8 8 8 8 8 8 8 7 7 7 7 6 5 5 5 5 4 4 5 5 5 5 4 4 4 4 4 4
8 9 8 8 8 9 8 8 9 9 8 8 8 8 8 9 9 8 8 9 9 8 8 9 9 9 8 8 7 8 7 7 7 6 6 5 5 4 5 5 5 5 5 4 3 4 4 4 5
9 9 9 9 9 9 9 10 9 9 9 9 9 8 8 9 9 9 9 9 9 9 9 9 9 9 8 8 8 8 8 8 7 6 6 6 6 6 5 5 5 5 5 4 4 4 4 4 4
10 10 10 10 10 10 10 10 9 9 9 9 8 8 8 8 8 9 9 9 9 8 8 9 9 9 8 8 8 9 9 8 8 7 7 7 7 7 7 6 5 5 5 5 5 5 5 5 5
11 11 11 11 12 12 11 11 10 9 9 8 8 8 8 8 9 9 9 9 9 9 9 9 9 9 9 9 9 10 10 10 9 8 8 8 8 8 8 7 7 6 6 6 6 6 6 6 6
12 12 12 12 13 13 12 12 10 8 8 9 9 8 8 8 8 8 9 9 9 10 10 10 10 11 10 10 10 11 11 10 10 9 9 9 9 9 8 8 8 8 7 7 6 6 6 7 7
12 13 13 13 14 13 12 13 10 9 9 9 9 9 8 9 8 9 9 9 10 10 11 11 11 11 11 11 11 11 12 11 10 10 10 10 9 9 9 8 8 8 8 7 7 7 7 8 8
12 13 14 14 13 13 13 13 11 10 9 9 9 9 9 9 9 9 9 9 10 10 11 11 12 12 12 11 11 11 11 11 11 11 11 10 10 10 10 9 8 9 9 8 8 8 8 8 8
14 14 15 15 15 15 15 14 12 11 10 9 9 10 10 9 10 10 10 10 11 11 11 11 11 12 12 12 12 12 11 11 12 11 11 11 10 10 10 9 9 9 9 9 9 9 9 9 9
15 15 16 17 16 16 15 14 13 11 11 10 10 9 9 9 10 11 11 11 11 11 11 12 12 12 12 13 12 13 12 12 12 12 12 12 12 11 11 10 10 10 10 10 10 10 10 9 10
15 16 18 18 19 18 18 16 14 12 12 11 10 10 10 9 10 12 12 12 11 12 12 13 12 12 12 13 13 13 14 14 14 13 13 13 12 12 11 11 11 11 11 11 11 11 11 11 11
17 18 18 19 19 20 19 16 15 14 13 13 12 11 11 10 11 12 12 12 12 13 13 13 13 13 13 14 14 14 14 14 14 14 14 13 13 12 12 12 12 12 12 12 12 12 12 12 12
Wind_Direction
193 193 195 202 213 220 218 213 206 206 207 195 201 213 225 230 221 234 204 215 245 261 261 281 270 293 307 327 335 338 332 329 327 324 312 299 295 306 307 302 300 292 287 286 288 284 270 266 264
199 199 202 206 215 222 223 219 214 213 209 212 222 231 235 232 224 229 225 269 267 288 283 280 270 280 307 318 329 331 332 322 316 313 308 300 293 302 307 306 303 299 285 278 276 277 280 269 263
201 205 212 216 217 225 227 225 225 213 215 225 230 235 243 243 232 222 235 248 251 277 290 273 270 269 292 312 319 316 312 314 313 305 310 300 296 296 301 310 314 307 295 283 275 268 287 289 268
207 212 218 220 223 231 232 232 231 224 222 226 232 236 248 242 229 220 236 253 283 290 296 290 283 273 281 298 303 302 299 306 307 308 303 301 292 287 296 305 311 307 303 293 277 265 284 310 291
215 220 219 221 226 229 229 232 237 221 230 234 233 238 239 237 227 228 242 257 288 302 297 296 294 286 284 282 293 296 298 303 301 302 300 289 288 285 287 302 310 307 301 296 299 284 295 306 303
222 224 219 221 225 226 227 225 231 226 231 235 231 233 233 239 234 238 249 261 282 294 298 296 290 292 282 281 291 299 301 300 295 296 293 287 288 287 293 298 301 303 304 313 315 306 307 308 311
225 227 228 229 227 227 227 232 225 225 227 230 229 237 242 243 239 254 266 264 276 289 289 286 284 287 284 284 286 297 304 305 297 296 296 287 283 281 283 290 288 287 293 300 305 307 308 308 317
228 231 229 231 234 233 228 231 233 235 236 233 232 239 241 247 252 262 266 268 275 287 292 280 279 281 281 287 290 294 304 308 310 306 298 291 285 283 283 281 284 280 281 286 296 295 308 311 311
228 228 231 236 241 241 232 233 241 243 244 247 240 240 243 248 257 261 263 270 276 288 299 295 284 281 280 283 290 295 300 304 308 308 300 293 285 288 285 277 276 275 280 282 287 289 298 300 300
227 229 232 237 241 243 242 240 240 240 247 251 246 249 250 254 260 261 259 263 271 281 289 289 285 280 275 279 288 295 299 302 302 305 301 294 288 287 283 272 267 275 284 285 278 273 280 291 294
230 233 235 241 242 244 245 244 243 237 240 246 244 249 254 254 252 251 253 267 270 274 279 278 279 278 274 273 283 291 297 301 301 304 302 297 292 283 276 265 266 273 283 280 274 280 281 288 285
235 231 233 242 244 246 247 248 246 244 246 244 241 243 246 245 246 252 261 270 276 271 273 278 284 274 271 273 278 283 290 296 295 298 301 292 281 268 263 262 263 267 276 270 274 284 279 279 282
235 237 237 237 241 244 245 247 246 242 242 241 239 241 247 252 255 260 267 268 272 271 268 274 279 279 278 279 279 284 288 292 291 295 299 293 277 264 265 270 266 267 277 278 279 276 281 281 280
232 235 234 235 237 241 240 242 240 236 240 240 239 243 249 254 260 264 269 272 267 266 266 264 268 279 279 277 277 280 284 283 287 299 300 295 282 263 258 261 263 266 273 277 278 281 279 276 279
226 235 234 234 235 237 241 239 238 239 242 242 243 247 249 255 257 258 260 262 265 266 263 261 265 275 277 277 274 273 277 280 286 293 296 292 282 275 278 274 274 266 270 276 280 281 280 276 278
233 237 238 235 234 237 241 237 237 240 243 249 249 251 252 255 257 256 259 261 262 263 260 264 267 270 273 275 271 272 275 283 288 290 290 286 281 274 277 277 283 275 270 274 281 286 281 281 282
232 234 234 234 235 236 240 238 236 242 243 250 252 253 252 253 254 260 260 260 260 259 258 262 265 266 269 272 267 271 278 285 287 290 290 283 282 280 285 287 287 287 280 272 275 287 286 292 292
230 234 234 237 240 239 240 242 244 247 250 253 255 258 258 260 259 260 261 259 257 259 262 264 265 262 262 262 260 267 274 280 284 287 284 284 283 283 286 288 288 288 285 270 271 283 289 293 295
233 236 238 238 240 240 238 238 242 248 253 255 256 257 257 259 259 261 259 257 254 253 254 256 256 255 256 255 257 264 269 275 274 274 276 281 278 279 285 290 293 290 285 272 271 276 281 289 296
236 241 241 243 243 244 243 239 238 244 253 257 257 255 255 254 259 260 258 259 251 252 254 255 258 258 259 258 256 259 265 268 265 261 268 274 273 274 283 293 300 296 293 280 274 278 280 286 297
244 248 247 247 247 249 250 246 246 248 254 257 258 255 256 253 255 257 256 257 256 256 256 258 261 259 258 260 256 256 261 262 259 258 260 266 269 273 275 279 291 295 294 286 277 280 285 281 287
250 249 250 251 249 249 252 250 246 251 254 257 258 258 259 255 255 254 252 252 254 255 254 254 258 255 256 258 255 255 256 255 257 257 259 264 268 269 268 271 278 288 289 285 283 282 282 281 283
249 246 246 248 249 248 249 251 246 247 253 259 262 261 260 254 252 249 248 252 253 253 251 253 255 255 256 256 254 254 254 253 251 253 257 262 268 266 264 266 272 279 282 280 279 285 278 279 284
247 246 244 249 251 249 250 248 246 249 255 262 268 266 256 249 248 248 250 252 254 253 252 256 257 258 257 255 254 252 252 252 249 251 254 258 264 264 261 264 269 274 278 277 274 279 276 276 280
251 249 249 251 250 252 252 251 254 255 257 262 264 260 251 246 251 254 254 256 257 258 257 257 258 258 257 257 255 253 250 250 252 254 255 257 262 261 260 265 270 272 274 275 274 273 271 273 279
250 250 251 254 255 254 252 253 258 257 258 259 259 257 253 248 249 255 259 260 260 261 261 262 264 259 256 254 253 251 248 248 252 254 256 259 261 261 260 264 270 271 271 272 270 270 271 274 279
250 247 249 253 255 255 256 257 257 259 259 259 258 252 248 245 243 252 260 262 262 263 264 265 265 260 255 253 251 251 250 252 253 251 255 257 256 261 263 264 267 267 269 268 269 270 270 272 277
250 248 246 247 252 255 258 259 260 259 259 261 256 252 249 245 246 252 258 261 261 263 266 266 263 260 258 255 254 254 254 253 252 253 254 257 258 258 260 263 263 264 266 265 266 267 269 270 274
250 250 248 248 250 253 256 260 260 259 261 262 259 255 252 250 252 255 258 258 259 263 266 265 261 260 260 258 256 256 256 255 254 254 254 257 259 259 260 260 262 266 266 265 265 267 269 272 274
249 250 249 247 248 252 255 257 257 259 261 260 258 257 254 257 260 259 259 259 261 264 264 263 261 260 259 258 258 257 258 257 254 254 254 254 256 258 260 261 263 266 266 265 264 265 268 273 275
Height
5884 5885 5886 5887 5889 5888 5888 5889 5889 5889 5890 5890 5891 5892 5892 5893 5894 5895 5893 5892 5892 5892 5892 5892 5891 5891 5891 5891 5891 5891 5890 5890 5889 5889 5888 5887 5887 5886 5886 5885 5884 5883 5883 5883 5882 5881 5881 5881 5881
5884 5884 5886 5886 5887 5887 5888 5888 5888 5889 5890 5890 5890 5891 5891 5892 5892 5892 5891 5891 5891 5891 5892 5891 5891 5891 5891 5891 5891 5890 5890 5890 5889 5888 5888 5887 5887 5886 5885 5885 5884 5883 5883 5882 5882 5881 5881 5880 5880
5883 5884 5885 5885 5885 5886 5887 5887 5887 5888 5889 5889 5890 5891 5891 5891 5891 5891 5891 5891 5891 5891 5891 5891 5891 5891 5891 5891 5890 5890 5890 5889 5888 5887 5887 5887 5886 5886 5885 5884 5883 5883 5882 5882 5881 5880 5880 5879 5879
5882 5884 5884 5885 5884 5885 5885 5886 5886 5887 5887 5888 5889 5890 5890 5891 5890 5891 5891 5891 5891 5891 5891 5891 5891 5891 5891 5890 5890 5890 5889 5889 5888 5888 5887 5886 5885 5885 5884 5884 5883 5882 5882 5881 5880 5880 5879 5879 5878
5881 5882 5883 5883 5883 5884 5884 5885 5885 5886 5887 5887 5888 5889 5889 5890 5890 5890 5890 5890 5890 5890 5890 5890 5890 5890 5890 5890 5889 5889 5889 5888 5888 5887 5886 5886 5885 5884 5884 5883 5883 5882 5881 5881 5880 5879 5879 5878 5878
5881 5881 5882 5882 5882 5883 5883 5883 5884 5885 5885 5886 5887 5888 5888 5889 5889 5889 5889 5889 5890 5890 5890 5889 5889 5889 5889 5889 5889 5888 5888 5887 5887 5886 5885 5885 5884 5884 5883 5883 5882 5882 5881 5880 5879 5879 5878 5878 5877
5880 5880 5880 5881 5881 5882 5882 5882 5883 5884 5884 5885 5886 5887 5887 5888 5888 5888 5888 5888 5888 5889 5888 5888 5889 5889 5888 5888 5888 5888 5887 5886 5886 5885 5884 5884 5884 5883 5882 5882 5881 5881 5880 5880 5879 5878 5878 5877 5876
5878 5879 5878 5879 5880 5881 5881 5882 5882 5883 5883 5884 5885 5886 5886 5886 5887 5887 5887 5887 5887 5888 5888 5887 5887 5888 5887 5887 5887 5887 5886 5886 5885 5884 5884 5883 5883 5882 5881 5881 5880 5880 5879 5879 5878 5877 5877 5876 5876
5876 5878 5877 5878 5879 5879 5880 5881 5882 5882 5882 5883 5884 5884 5885 5885 5885 5886 5886 5886 5886 5887 5887 5886 5887 5887 5886 5886 5886 5886 5885 5885 5884 5883 5882 5882 5881 5881 5880 5880 5879 5879 5878 5877 5877 5876 5876 5875 5875
5875 5875 5876 5877 5878 5878 5878 5879 5880 5881 5881 5882 5882 5883 5883 5884 5884 5884 5885 5885 5885 5885 5885 5885 5886 5886 5885 5885 5885 5885 5884 5884 5883 5882 5881 5881 5880 5880 5879 5879 5878 5878 5877 5876 5876 5875 5875 5874 5874
5873 5874 5874 5875 5876 5876 5877 5878 5878 5879 5880 5881 5881 5882 5882 5882 5883 5883 5884 5884 5884 5884 5884 5884 5884 5884 5884 5884 5884 5884 5883 5882 5882 5881 5880 5879 5878 5878 5878 5877 5877 5877 5876 5875 5875 5874 5874 5874 5873
5871 5872 5873 5873 5874 5875 5876 5876 5877 5878 5879 5879 5880 5880 5881 5881 5882 5882 5882 5882 5882 5883 5883 5883 5883 5883 5883 5882 5882 5882 5881 5881 5880 5879 5879 5878 5877 5877 5876 5876 5876 5875 5875 5874 5874 5874 5873 5872 5872
5870 5871 5871 5872 5873 5873 5874 5874 5875 5876 5876 5877 5878 5879 5879 5880 5880 5880 5880 5881 5881 5881 5881 5881 5882 5882 5882 5881 5881 5880 5880 5879 5879 5878 5877 5877 5876 5876 5875 5874 5874 5874 5874 5873 5873 5872 5872 5871 5871
5868 5869 5870 5870 5871 5872 5872 5873 5874 5874 5875 5875 5876 5877 5878 5878 5878 5878 5879 5879 5879 5879 5879 5880 5880 5880 5880 5880 5879 5879 5879 5878 5877 5877 5876 5875 5875 5874 5873 5873 5873 5873 5872 5872 5871 5871 5870 5870 5869
5866 5868 5868 5869 5869 5870 5871 5872 5872 5872 5873 5874 5874 5875 5876 5876 5876 5877 5877 5877 5877 5877 5878 5878 5878 5878 5878 5878 5878 5877 5877 5876 5876 5875 5875 5874 5873 5873 5872 5872 5871 5871 5871 5870 5870 5870 5869 5869 5868
5865 5866 5867 5868 5868 5869 5871 5870 5870 5871 5871 5872 5872 5873 5874 5874 5874 5875 5875 5875 5875 5875 5875 5876 5876 5876 5876 5876 5876 5875 5875 5875 5874 5874 5873 5872 5872 5871 5871 5871 5870 5870 5869 5869 5869 5868 5868 5868 5867
5864 5864 5865 5866 5866 5867 5868 5868 5869 5869 5870 5870 5870 5871 5871 5872 5872 5873 5872 5872 5873 5873 5873 5874 5874 5874 5874 5874 5874 5874 5873 5873 5873 5872 5871 5871 5871 5870 5870 5870 5869 5869 5868 5868 5868 5867 5867 5867 5866
5862 5862 5863 5864 5864 5865 5865 5866 5866 5867 5867 5868 5868 5869 5869 5870 5870 5870 5870 5870 5871 5871 5871 5871 5871 5871 5871 5872 5872 5872 5871 5871 5871 5870 5870 5870 5869 5869 5869 5868 5868 5867 5867 5867 5866 5866 5866 5866 5865
5859 5860 5861 5862 5862 5862 5863 5863 5864 5864 5865 5866 5866 5866 5867 5867 5868 5868 5868 5868 5868 5869 5869 5869 5869 5869 5869 5870 5870 5870 5870 5869 5869 5869 5869 5868 5868 5868 5867 5867 5867 5866 5866 5865 5865 5865 5865 5865 5864
5857 5858 5859 5859 5859 5859 5860 5861 5862 5862 5863 5863 5863 5864 5864 5864 5865 5865 5865 5866 5866 5866 5866 5867 5867 5867 5867 5867 5868 5868 5868 5868 5868 5867 5867 5867 5867 5866 5866 5866 5865 5865 5864 5864 5864 5864 5864 5864 5863
5855 5856 5856 5857 5857 5857 5858 5859 5860 5860 5860 5860 5861 5861 5862 5862 5862 5863 5863 5863 5864 5864 5864 5864 5864 5865 5865 5865 5865 5865 5866 5866 5866 5865 5865 5865 5865 5865 5864 5864 5864 5863 5863 5863 5863 5863 5862 5862 5862
5853 5853 5854 5854 5855 5855 5856 5856 5857 5857 5857 5858 5858 5858 5859 5859 5860 5860 5860 5861 5861 5862 5862 5862 5862 5862 5863 5863 5863 5863 5863 5864 5864 5863 5863 5863 5863 5863 5863 5863 5862 5862 5862 5861 5861 5861 5861 5861 5860
5850 5850 5851 5851 5851 5852 5853 5853 5855 5855 5855 5855 5856 5856 5856 5857 5857 5857 5858 5858 5859 5859 5860 5860 5860 5860 5860 5860 5860 5861 5861 5861 5862 5861 5861 5861 5861 5861 5861 5861 5861 5860 5860 5860 5860 5859 5859 5859 5859
5847 5848 5848 5848 5848 5849 5850 5850 5852 5852 5853 5853 5853 5853 5853 5854 5854 5854 5855 5855 5856 5856 5857 5857 5857 5857 5857 5858 5858 5858 5858 5858 5859 5859 5859 5859 5859 5859 5859 5859 5859 5859 5858 5858 5858 5858 5857 5857 5857
5844 5845 5845 5845 5845 5846 5847 5847 5849 5849 5850 5850 5850 5850 5850 5851 5851 5852 5852 5852 5853 5853 5854 5854 5854 5854 5854 5854 5854 5855 5855 5856 5856 5856 5857 5857 5857 5857 5857 5857 5857 5856 5856 5856 5856 5856 5856 5855 5855
5841 5842 5843 5843 5843 5843 5843 5843 5846 5846 5846 5846 5847 5847 5847 5848 5848 5849 5849 5850 5850 5850 5850 5850 5851 5851 5851 5851 5851 5852 5852 5853 5853 5854 5854 5854 5854 5854 5854 5854 5854 5854 5854 5854 5854 5853 5853 5853 5853
5837 5837 5839 5839 5838 5839 5839 5840 5842 5842 5843 5843 5844 5844 5844 5845 5846 5846 5846 5847 5847 5847 5847 5847 5847 5848 5848 5848 5848 5849 5849 5850 5850 5850 5851 5851 5851 5851 5851 5851 5852 5852 5852 5851 5851 5851 5851 5851 5851
5833 5834 5834 5834 5834 5835 5836 5836 5838 5838 5839 5840 5840 5841 5841 5842 5843 5843 5843 5843 5844 5844 5844 5844 5844 5845 5845 5845 5845 5845 5846 5846 5847 5847 5847 5848 5848 5848 5848 5849 5849 5849 5849 5849 5849 5849 5848 5848 5848
5829 5829 5829 5830 5830 5831 5832 5835 5834 5835 5836 5836 5837 5837 5838 5839 5839 5839 5840 5840 5840 5840 5841 5841 5841 5841 5841 5841 5841 5842 5842 5843 5843 5843 5844 5844 5845 5845 5845 5845 5845 5846 5846 5846 5846 5846 5845 5845 5845
5824 5824 5825 5826 5826 5826 5827 5832 5830 5831 5832 5832 5833 5834 5834 5835 5836 5836 5836 5836 5837 5837 5837 5837 5837 5838 5838 5838 5838 5838 5838 5839 5839 5839 5840 5841 5841 5841 5842 5842 5842 5842 5842 5842 5842 5842 5842 5842 5842